Notices

What's New in latest Release from April 7th, 2021:

- Updated Glossary, including Speed of Maximum Gust, and Total Hourly Precipitation

- Updated national and regional climate services offices contacts and prices information

- Addition of station inventory lists for 1981-2010, 1971-2000, and 1961-1990 Normals.

If you haven't already, please take our survey and provide feedback about our website: https://eccc.sondage-survey.ca/f/LanguageSelection.aspx?s=442ca660-fcf1-47c0-95a9-59707d6fd709

Hourly Data Report for August 19, 2020

TORONTO CITY
ONTARIO
Current Station Operator: ECCC - MSC

43°40'00.000" N
79°24'00.000" W
112.50 m
6158355
71508
XTO

Download Data

Hourly Data (August 2020)
Hourly Data Report for August 19, 2020
TIME
LST
Temp Definition
°C
Dew Point Definition
°C
Rel Hum Definition
%
Precip. Amount Definition
mm

Wind Dir Definition
10's deg

Wind Spd Definition
km/h
Visibility Definition
km
Stn Press Definition
kPa
Hmdx Definition


Wind Chill Definition


Weather Definition


00:00 15.6 9.4 66 0.0       100.17     LegendNANA
01:00 15.3 9.4 68 0.0       100.17     LegendNANA
02:00 14.7 9.8 72 0.0       100.17     LegendNANA
03:00 15.0 9.4 69 0.0       100.17     LegendNANA
04:00 14.2 9.7 74 0.0       100.17     LegendNANA
05:00 14.4 9.5 72 0.0       100.21     LegendNANA
06:00 14.4 10.1 75 0.0       100.28     LegendNANA
07:00 16.1 9.6 66 0.0       100.31     LegendNANA
08:00 18.1 9.3 56 0.0       100.36     LegendNANA
09:00 19.6 9.0 50 0.0       100.40     LegendNANA
10:00 20.8 8.3 44 0.0       100.42     LegendNANA
11:00 20.8 8.6 45 0.0       100.43     LegendNANA
12:00 22.8 6.6 35 0.0       100.44     LegendNANA
13:00 22.6 3.9 29 0.0       100.42     LegendNANA
14:00 23.4 4.7 30 0.0       100.39     LegendNANA
15:00 23.0 4.6 30 0.0       100.36     LegendNANA
16:00 22.5 5.8 34 0.0       100.30     LegendNANA
17:00 22.3 5.9 34 0.0       100.32     LegendNANA
18:00 21.8 6.3 37 0.0       100.34     LegendNANA
19:00 20.6 6.7 40 0.0       100.36     LegendNANA
20:00 19.4 6.1 42 0.0       100.41     LegendNANA
21:00 18.7 4.8 40 0.0       100.45     LegendNANA
22:00 17.5 5.4 45 0.0       100.43     LegendNANA
23:00 16.4 6.4 51 0.0       100.43     LegendNANA

Notes on Data Quality.

Legend

  • E = Estimated
  • M = Missing
  • NA = Not Available*
  • [empty] = Indicates an unobserved value
Date modified: